Time,TemperatureF,DewpointF,PressureIn,WindDirection,WindDirectionDegrees,WindSpeedMPH,WindSpeedGustMPH,Humidity,HourlyPrecipIn,Conditions,Clouds,dailyrainin,SoftwareType,DateUTC
2013-12-11 00:03:00,42.8,39.5,30.30,NE,40,3.0,3.0,88,0.00,,,0.00,Wunderground v.1.15,2013-12-11 05:03:00,
2013-12-11 00:13:00,42.5,38.6,30.30,NNE,32,4.0,6.0,86,0.00,,,0.00,Wunderground v.1.15,2013-12-11 05:13:00,
2013-12-11 00:24:00,42.3,37.2,30.30,NE,44,4.0,4.0,82,0.00,,,0.00,Wunderground v.1.15,2013-12-11 05:24:00,
2013-12-11 00:39:00,41.9,35.5,30.30,NNE,28,4.0,4.0,78,0.00,,,0.00,Wunderground v.1.15,2013-12-11 05:39:00,
2013-12-11 00:53:00,41.5,34.8,30.30,NNE,29,3.0,3.0,77,0.00,,,0.00,Wunderground v.1.15,2013-12-11 05:53:00,
2013-12-11 01:04:00,41.1,34.4,30.30,NE,37,3.0,3.0,77,0.00,,,0.00,Wunderground v.1.15,2013-12-11 06:04:00,
2013-12-11 01:19:00,40.7,34.0,30.30,NE,35,1.0,1.0,77,0.00,,,0.00,Wunderground v.1.15,2013-12-11 06:19:00,
2013-12-11 01:33:00,40.3,33.7,30.30,NE,35,0.0,0.0,77,0.00,,,0.00,Wunderground v.1.15,2013-12-11 06:33:00,
2013-12-11 01:44:00,39.8,33.5,30.30,NE,35,0.0,0.0,78,0.00,,,0.00,Wunderground v.1.15,2013-12-11 06:44:00,
2013-12-11 01:59:00,39.5,33.5,30.31,NE,35,0.0,0.0,79,0.00,,,0.00,Wunderground v.1.15,2013-12-11 06:59:00,
2013-12-11 02:14:00,39.0,33.4,30.31,NE,35,0.0,0.0,80,0.00,,,0.00,Wunderground v.1.15,2013-12-11 07:14:00,
2013-12-11 02:29:00,38.8,33.5,30.32,ENE,64,1.0,1.0,81,0.00,,,0.00,Wunderground v.1.15,2013-12-11 07:29:00,
2013-12-11 02:43:00,38.5,33.5,30.31,ENE,65,0.0,0.0,82,0.00,,,0.00,Wunderground v.1.15,2013-12-11 07:43:00,
2013-12-11 02:54:00,38.0,33.3,30.32,ENE,65,0.0,0.0,83,0.00,,,0.00,Wunderground v.1.15,2013-12-11 07:54:00,
2013-12-11 03:09:00,37.7,33.6,30.32,ENE,70,0.0,0.0,85,0.00,,,0.00,Wunderground v.1.15,2013-12-11 08:09:00,
2013-12-11 03:23:00,37.3,33.2,30.32,ENE,70,0.0,0.0,85,0.00,,,0.00,Wunderground v.1.15,2013-12-11 08:23:00,
2013-12-11 03:34:00,37.1,33.3,30.32,ENE,70,0.0,0.0,86,0.00,,,0.00,Wunderground v.1.15,2013-12-11 08:34:00,
2013-12-11 03:49:00,36.8,33.3,30.32,ENE,69,0.0,0.0,87,0.00,,,0.00,Wunderground v.1.15,2013-12-11 08:49:00,
2013-12-11 04:03:00,36.4,32.9,30.32,ENE,69,0.0,1.0,87,0.00,,,0.00,Wunderground v.1.15,2013-12-11 09:03:00,
2013-12-11 04:14:00,36.2,33.0,30.32,ENE,69,0.0,0.0,88,0.00,,,0.00,Wunderground v.1.15,2013-12-11 09:14:00,
2013-12-11 04:29:00,35.9,32.7,30.32,ENE,69,0.0,0.0,88,0.00,,,0.00,Wunderground v.1.15,2013-12-11 09:29:00,
2013-12-11 04:43:00,35.6,32.7,30.33,ENE,69,0.0,0.0,89,0.00,,,0.00,Wunderground v.1.15,2013-12-11 09:43:00,
2013-12-11 04:54:00,35.3,32.4,30.33,ENE,69,0.0,0.0,89,0.00,,,0.00,Wunderground v.1.15,2013-12-11 09:54:00,
2013-12-11 05:09:00,35.0,32.4,30.33,ENE,69,0.0,0.0,90,0.00,,,0.00,Wunderground v.1.15,2013-12-11 10:09:00,
2013-12-11 05:24:00,34.7,32.1,30.33,ENE,69,0.0,0.0,90,0.00,,,0.00,Wunderground v.1.15,2013-12-11 10:24:00,
2013-12-11 05:34:00,34.6,32.0,30.34,ENE,71,0.0,0.0,90,0.00,,,0.00,Wunderground v.1.15,2013-12-11 10:34:00,
2013-12-11 05:49:00,34.3,31.7,30.34,ENE,71,0.0,0.0,90,0.00,,,0.00,Wunderground v.1.15,2013-12-11 10:49:00,
2013-12-11 06:04:00,34.1,31.5,30.35,ENE,71,0.0,0.0,90,0.00,,,0.00,Wunderground v.1.15,2013-12-11 11:04:00,
2013-12-11 06:19:00,33.9,31.3,30.36,ENE,71,0.0,0.0,90,0.00,,,0.00,Wunderground v.1.15,2013-12-11 11:19:00,
2013-12-11 06:34:00,33.7,31.1,30.37,ENE,71,0.0,0.0,90,0.00,,,0.00,Wunderground v.1.15,2013-12-11 11:34:00,
2013-12-11 06:48:00,33.6,31.0,30.37,ENE,71,0.0,0.0,90,0.00,,,0.00,Wunderground v.1.15,2013-12-11 11:48:00,
2013-12-11 06:59:00,33.6,31.0,30.38,ENE,69,1.0,1.0,90,0.00,,,0.00,Wunderground v.1.15,2013-12-11 11:59:00,
2013-12-11 07:14:00,33.2,30.6,30.39,ENE,69,1.0,1.0,90,0.00,,,0.00,Wunderground v.1.15,2013-12-11 12:14:00,
2013-12-11 07:28:00,33.0,30.4,30.39,ENE,59,2.0,2.0,90,0.00,,,0.00,Wunderground v.1.15,2013-12-11 12:28:00,
2013-12-11 07:39:00,32.9,30.3,30.39,ENE,57,1.0,2.0,90,0.00,,,0.00,Wunderground v.1.15,2013-12-11 12:39:00,
2013-12-11 07:54:00,33.0,30.7,30.40,ENE,57,2.0,3.0,91,0.00,,,0.00,Wunderground v.1.15,2013-12-11 12:54:00,
2013-12-11 08:09:00,33.7,31.1,30.40,NE,55,1.0,2.0,90,0.00,,,0.00,Wunderground v.1.15,2013-12-11 13:09:00,
2013-12-11 08:24:00,35.3,31.5,30.41,ENE,67,3.0,4.0,86,0.00,,,0.00,Wunderground v.1.15,2013-12-11 13:24:00,
2013-12-11 08:38:00,37.0,31.4,30.41,ENE,69,2.0,3.0,80,0.00,,,0.00,Wunderground v.1.15,2013-12-11 13:38:00,
2013-12-11 08:49:00,38.0,31.1,30.42,East,83,3.0,3.0,76,0.00,,,0.00,Wunderground v.1.15,2013-12-11 13:49:00,
2013-12-11 09:04:00,39.1,30.8,30.42,ENE,65,3.0,3.0,72,0.00,,,0.00,Wunderground v.1.15,2013-12-11 14:04:00,
2013-12-11 09:19:00,40.3,30.9,30.43,East,97,2.0,5.0,69,0.00,,,0.00,Wunderground v.1.15,2013-12-11 14:19:00,
2013-12-11 09:34:00,41.3,30.8,30.43,NE,51,4.0,4.0,66,0.00,,,0.00,Wunderground v.1.15,2013-12-11 14:34:00,
2013-12-11 09:44:00,41.8,30.1,30.44,East,87,5.0,5.0,63,0.00,,,0.00,Wunderground v.1.15,2013-12-11 14:44:00,
2013-12-11 09:59:00,42.7,28.9,30.43,East,79,5.0,5.0,58,0.00,,,0.00,Wunderground v.1.15,2013-12-11 14:59:00,
2013-12-11 10:08:00,43.3,27.3,30.43,East,79,5.0,7.0,53,0.00,,,0.00,Wunderground v.1.15,2013-12-11 15:08:00,
2013-12-11 10:19:00,44.0,28.9,30.42,East,96,4.0,4.0,55,0.00,,,0.00,Wunderground v.1.15,2013-12-11 15:19:00,
2013-12-11 10:33:00,44.7,26.2,30.42,ESE,107,7.0,7.0,48,0.00,,,0.00,Wunderground v.1.15,2013-12-11 15:33:00,
2013-12-11 10:44:00,44.8,25.3,30.41,ENE,63,6.0,6.0,46,0.00,,,0.00,Wunderground v.1.15,2013-12-11 15:44:00,
2013-12-11 10:59:00,45.2,26.1,30.41,ENE,66,6.0,6.0,47,0.00,,,0.00,Wunderground v.1.15,2013-12-11 15:59:00,
2013-12-11 11:14:00,46.3,27.7,30.40,East,96,4.0,7.0,48,0.00,,,0.00,Wunderground v.1.15,2013-12-11 16:14:00,
2013-12-11 11:29:00,46.7,27.0,30.40,East,101,4.0,5.0,46,0.00,,,0.00,Wunderground v.1.15,2013-12-11 16:29:00,
2013-12-11 11:44:00,47.5,27.2,30.39,NE,52,3.0,5.0,45,0.00,,,0.00,Wunderground v.1.15,2013-12-11 16:44:00,
2013-12-11 11:58:00,47.9,27.0,30.37,SE,126,4.0,4.0,44,0.00,,,0.00,Wunderground v.1.15,2013-12-11 16:58:00,
2013-12-11 12:14:00,49.0,27.5,30.37,NNE,32,3.0,3.0,43,0.00,,,0.00,Wunderground v.1.15,2013-12-11 17:14:00,
2013-12-11 12:29:00,49.1,28.1,30.35,ENE,73,3.0,3.0,44,0.00,,,0.00,Wunderground v.1.15,2013-12-11 17:29:00,
2013-12-11 12:43:00,49.5,26.7,30.35,NE,38,3.0,3.0,41,0.00,,,0.00,Wunderground v.1.15,2013-12-11 17:43:00,
2013-12-11 12:54:00,49.8,25.8,30.34,SE,125,1.0,1.0,39,0.00,,,0.00,Wunderground v.1.15,2013-12-11 17:54:00,
2013-12-11 13:09:00,50.2,24.2,30.33,East,98,3.0,3.0,36,0.00,,,0.00,Wunderground v.1.15,2013-12-11 18:09:00,
2013-12-11 13:24:00,51.4,25.3,30.32,West,265,1.0,1.0,36,0.00,,,0.00,Wunderground v.1.15,2013-12-11 18:24:00,
2013-12-11 13:39:00,51.8,24.3,30.32,NNE,31,1.0,1.0,34,0.00,,,0.00,Wunderground v.1.15,2013-12-11 18:39:00,
2013-12-11 13:53:00,52.1,23.1,30.32,East,85,2.0,2.0,32,0.00,,,0.00,Wunderground v.1.15,2013-12-11 18:53:00,
2013-12-11 14:08:00,51.6,23.4,30.31,ESE,109,4.0,4.0,33,0.00,,,0.00,Wunderground v.1.15,2013-12-11 19:08:00,
2013-12-11 14:19:00,51.6,23.4,30.30,NE,44,3.0,3.0,33,0.00,,,0.00,Wunderground v.1.15,2013-12-11 19:19:00,
2013-12-11 14:34:00,52.0,24.5,30.30,NNE,30,3.0,4.0,34,0.00,,,0.00,Wunderground v.1.15,2013-12-11 19:34:00,
2013-12-11 14:48:00,52.6,25.0,30.29,ENE,78,2.0,2.0,34,0.00,,,0.00,Wunderground v.1.15,2013-12-11 19:48:00,
2013-12-11 14:59:00,53.1,26.1,30.30,ENE,60,1.0,1.0,35,0.00,,,0.00,Wunderground v.1.15,2013-12-11 19:59:00,
2013-12-11 15:14:00,53.2,25.5,30.29,ESE,121,2.0,2.0,34,0.00,,,0.00,Wunderground v.1.15,2013-12-11 20:14:00,
2013-12-11 15:29:00,53.7,26.7,30.29,North,360,1.0,1.0,35,0.00,,,0.00,Wunderground v.1.15,2013-12-11 20:29:00,
2013-12-11 15:43:00,54.1,27.7,30.29,ENE,77,0.0,0.0,36,0.00,,,0.00,Wunderground v.1.15,2013-12-11 20:43:00,
2013-12-11 15:54:00,53.4,25.7,30.29,East,88,3.0,3.0,34,0.00,,,0.00,Wunderground v.1.15,2013-12-11 20:54:00,
2013-12-11 16:09:00,53.1,26.8,30.28,ENE,63,1.0,1.0,36,0.00,,,0.00,Wunderground v.1.15,2013-12-11 21:09:00,
2013-12-11 16:23:00,52.8,28.5,30.29,ENE,59,2.0,2.0,39,0.00,,,0.00,Wunderground v.1.15,2013-12-11 21:23:00,
2013-12-11 16:34:00,52.5,28.2,30.29,NE,41,2.0,4.0,39,0.00,,,0.00,Wunderground v.1.15,2013-12-11 21:34:00,
2013-12-11 16:49:00,51.8,30.6,30.29,NE,35,2.0,2.0,44,0.00,,,0.00,Wunderground v.1.15,2013-12-11 21:49:00,
2013-12-11 17:04:00,50.8,30.7,30.29,NE,35,0.0,0.0,46,0.00,,,0.00,Wunderground v.1.15,2013-12-11 22:04:00,
2013-12-11 17:19:00,49.9,33.0,30.30,NE,35,0.0,1.0,52,0.00,,,0.00,Wunderground v.1.15,2013-12-11 22:19:00,
2013-12-11 17:34:00,48.0,33.9,30.30,NE,35,1.0,1.0,58,0.00,,,0.00,Wunderground v.1.15,2013-12-11 22:34:00,
2013-12-11 17:48:00,47.0,33.4,30.30,NE,35,0.0,0.0,59,0.00,,,0.00,Wunderground v.1.15,2013-12-11 22:48:00,
2013-12-11 17:59:00,46.2,33.1,30.30,NE,35,0.0,0.0,60,0.00,,,0.00,Wunderground v.1.15,2013-12-11 22:59:00,
2013-12-11 18:14:00,45.7,34.2,30.30,NE,35,0.0,0.0,64,0.00,,,0.00,Wunderground v.1.15,2013-12-11 23:14:00,
2013-12-11 18:29:00,44.8,36.3,30.30,NE,35,0.0,0.0,72,0.00,,,0.00,Wunderground v.1.15,2013-12-11 23:29:00,
2013-12-11 18:44:00,44.0,35.9,30.31,NE,35,0.0,0.0,73,0.00,,,0.00,Wunderground v.1.15,2013-12-11 23:44:00,
2013-12-11 18:58:00,43.6,35.9,30.31,NE,35,0.0,0.0,74,0.00,,,0.00,Wunderground v.1.15,2013-12-11 23:58:00,
2013-12-11 19:09:00,43.3,35.6,30.30,NE,35,0.0,0.0,74,0.00,,,0.00,Wunderground v.1.15,2013-12-12 00:09:00,
2013-12-11 19:24:00,42.9,35.2,30.31,NE,35,0.0,0.0,74,0.00,,,0.00,Wunderground v.1.15,2013-12-12 00:24:00,
2013-12-11 19:38:00,42.3,35.9,30.31,NE,35,0.0,0.0,78,0.00,,,0.00,Wunderground v.1.15,2013-12-12 00:38:00,
2013-12-11 19:53:00,41.9,35.5,30.31,NE,35,0.0,0.0,78,0.00,,,0.00,Wunderground v.1.15,2013-12-12 00:53:00,
2013-12-11 20:04:00,41.6,35.6,30.31,NE,35,0.0,0.0,79,0.00,,,0.00,Wunderground v.1.15,2013-12-12 01:04:00,
2013-12-11 20:19:00,41.5,35.8,30.30,NE,35,0.0,0.0,80,0.00,,,0.00,Wunderground v.1.15,2013-12-12 01:19:00,
2013-12-11 20:34:00,41.8,36.4,30.30,NE,35,0.0,0.0,81,0.00,,,0.00,Wunderground v.1.15,2013-12-12 01:34:00,
2013-12-11 20:49:00,42.0,37.2,30.29,NE,35,0.0,0.0,83,0.00,,,0.00,Wunderground v.1.15,2013-12-12 01:49:00,
2013-12-11 20:59:00,42.2,37.7,30.29,NE,35,0.0,0.0,84,0.00,,,0.00,Wunderground v.1.15,2013-12-12 01:59:00,
2013-12-11 21:08:00,42.2,37.7,30.29,NE,35,0.0,0.0,84,0.00,,,0.00,Wunderground v.1.15,2013-12-12 02:08:00,
2013-12-11 21:19:00,42.2,37.4,30.29,NE,35,0.0,0.0,83,0.00,,,0.00,Wunderground v.1.15,2013-12-12 02:19:00,
2013-12-11 21:34:00,42.1,37.3,30.28,NE,35,0.0,0.0,83,0.00,,,0.00,Wunderground v.1.15,2013-12-12 02:34:00,
2013-12-11 21:48:00,41.9,37.4,30.29,NE,35,0.0,0.0,84,0.00,,,0.00,Wunderground v.1.15,2013-12-12 02:48:00,
2013-12-11 21:59:00,41.8,37.3,30.28,NE,35,0.0,0.0,84,0.00,,,0.00,Wunderground v.1.15,2013-12-12 02:59:00,
2013-12-11 22:14:00,41.5,37.0,30.28,NE,35,0.0,0.0,84,0.00,,,0.00,Wunderground v.1.15,2013-12-12 03:14:00,
2013-12-11 22:29:00,41.4,36.6,30.27,NE,35,1.0,1.0,83,0.00,,,0.00,Wunderground v.1.15,2013-12-12 03:29:00,
2013-12-11 22:44:00,41.5,36.7,30.27,NE,35,0.0,0.0,83,0.00,,,0.00,Wunderground v.1.15,2013-12-12 03:44:00,
2013-12-11 22:59:00,41.6,36.8,30.27,NE,35,0.0,0.0,83,0.00,,,0.00,Wunderground v.1.15,2013-12-12 03:59:00,
2013-12-11 23:13:00,41.5,37.0,30.27,NE,35,0.0,1.0,84,0.00,,,0.00,Wunderground v.1.15,2013-12-12 04:13:00,
2013-12-11 23:28:00,41.2,37.0,30.26,NE,35,0.0,0.0,85,0.00,,,0.00,Wunderground v.1.15,2013-12-12 04:28:00,
2013-12-11 23:39:00,41.0,36.8,30.26,NE,35,0.0,0.0,85,0.00,,,0.00,Wunderground v.1.15,2013-12-12 04:39:00,
2013-12-11 23:54:00,40.6,36.1,30.26,NE,35,0.0,0.0,84,0.00,,,0.00,Wunderground v.1.15,2013-12-12 04:54:00,